When you browse on this site, cookies collect data to enhance your experience and personalize the content and advertising you see.
Visit our Privacy Policy to learn more. By continuing to use the site, you agree to this use of cookies and data.
  • în România
  • Lista ţărilor
  • Pe 7 zile
  • Temperatura apei
  • Meteo pe hartă
  • Widget-uri
  • user-avatar
    Intrare

    Meteo pe oră la Gusyatin

    Astăzi, 28 Ianuarie, Marţi

    Timp Temperatura Precipitaţii Vânt Presiune Umiditate
    00:00 +3°C° 0 mm 1 m/s 738 mmHg 89%
    01:00 +2°C° 0 mm 1 m/s 738 mmHg 89%
    02:00 +2°C° 0 mm 1 m/s 738 mmHg 90%
    03:00 +2°C° 0 mm 1 m/s 737 mmHg 90%
    04:00 +2°C° 0 mm 1 m/s 737 mmHg 90%
    05:00 +2°C° 0 mm 1 m/s 737 mmHg 90%
    06:00 +2°C° 0 mm 1 m/s 737 mmHg 91%
    07:00 +2°C° 0 mm 1 m/s 737 mmHg 91%
    08:00 +2°C° 0 mm 1 m/s 737 mmHg 92%
    09:00 +2°C° 0 mm 2 m/s 736 mmHg 89%
    10:00 +3°C° 0 mm 2 m/s 736 mmHg 86%
    11:00 +3°C° 0 mm 3 m/s 736 mmHg 83%
    12:00 +4°C° 0 mm 3 m/s 735 mmHg 80%
    13:00 +4°C° 0 mm 3 m/s 734 mmHg 78%
    14:00 +5°C° 0 mm 4 m/s 734 mmHg 76%
    15:00 +4°C° 0 mm 4 m/s 733 mmHg 79%
    16:00 +3°C° 0 mm 3 m/s 733 mmHg 82%
    17:00 +3°C° 0 mm 3 m/s 732 mmHg 85%
    18:00 +2°C° 0 mm 3 m/s 732 mmHg 86%
    19:00 +1°C° 0 mm 4 m/s 732 mmHg 86%
    20:00 +1°C° 0 mm 4 m/s 732 mmHg 87%
    21:00 +1°C° 0 mm 4 m/s 731 mmHg 87%
    22:00 +1°C° 0 mm 4 m/s 730 mmHg 87%
    23:00 +1°C° 0 mm 4 m/s 730 mmHg 87%

    Mâine, 29 Ianuarie, Miercuri

    Timp Temperatura Precipitaţii Vânt Presiune Umiditate
    00:00 +1°C° 0 mm 4 m/s 729 mmHg 88%
    01:00 0°C° 0 mm 4 m/s 728 mmHg 89%
    02:00 0°C° 0 mm 4 m/s 728 mmHg 90%
    03:00 0°C° 0 mm 4 m/s 727 mmHg 90%
    04:00 0°C° 0 mm 4 m/s 725 mmHg 90%
    05:00 0°C° 0 mm 5 m/s 724 mmHg 89%
    06:00 0°C° 0.3 mm 5 m/s 724 mmHg 89%
    07:00 +1°C° 0.3 mm 5 m/s 724 mmHg 89%
    08:00 +1°C° 0.3 mm 6 m/s 724 mmHg 89%
    09:00 0°C° 0.6 mm 7 m/s 724 mmHg 91%
    10:00 -1°C° 0.6 mm 9 m/s 725 mmHg 93%
    11:00 -3°C° 0.6 mm 11 m/s 725 mmHg 95%
    12:00 -3°C° 0.3 mm 10 m/s 726 mmHg 87%
    13:00 -2°C° 0.3 mm 10 m/s 727 mmHg 78%
    14:00 0°C° 0.3 mm 10 m/s 727 mmHg 70%
    15:00 -1°C° 0 mm 9 m/s 727 mmHg 70%
    16:00 -1°C° 0 mm 7 m/s 728 mmHg 70%
    17:00 -1°C° 0 mm 6 m/s 728 mmHg 70%
    18:00 -2°C° 0 mm 6 m/s 728 mmHg 73%
    19:00 -1°C° 0 mm 5 m/s 728 mmHg 75%
    20:00 -1°C° 0 mm 5 m/s 728 mmHg 77%
    21:00 -2°C° 0 mm 6 m/s 728 mmHg 81%
    22:00 -2°C° 0 mm 7 m/s 728 mmHg 85%
    23:00 -2°C° 0 mm 7 m/s 728 mmHg 88%

    Poimâine, 30 Ianuarie, Joi

    Timp Temperatura Precipitaţii Vânt Presiune Umiditate
    00:00 -2°C° 0.1 mm 7 m/s 728 mmHg 87%
    01:00 -2°C° 0.1 mm 7 m/s 728 mmHg 86%
    02:00 -2°C° 0.1 mm 7 m/s 728 mmHg 85%
    03:00 -2°C° 0.3 mm 8 m/s 729 mmHg 88%
    04:00 -3°C° 0.3 mm 10 m/s 729 mmHg 92%
    05:00 -3°C° 0.3 mm 11 m/s 729 mmHg 95%
    06:00 -3°C° 0.2 mm 11 m/s 730 mmHg 92%
    07:00 -3°C° 0.2 mm 11 m/s 730 mmHg 89%
    08:00 -3°C° 0.2 mm 11 m/s 730 mmHg 86%
    09:00 -3°C° 0.1 mm 12 m/s 731 mmHg 87%
    10:00 -2°C° 0.1 mm 12 m/s 731 mmHg 88%
    11:00 -2°C° 0.1 mm 12 m/s 731 mmHg 88%
    12:00 -2°C° 0.2 mm 12 m/s 732 mmHg 87%
    13:00 -2°C° 0.2 mm 12 m/s 732 mmHg 85%
    14:00 -2°C° 0.2 mm 12 m/s 733 mmHg 84%
    15:00 -2°C° 0 mm 12 m/s 733 mmHg 85%
    16:00 -2°C° 0 mm 11 m/s 734 mmHg 87%
    17:00 -3°C° 0 mm 11 m/s 734 mmHg 88%
    18:00 -3°C° 0 mm 10 m/s 735 mmHg 87%
    19:00 -3°C° 0 mm 10 m/s 735 mmHg 85%
    20:00 -3°C° 0 mm 9 m/s 736 mmHg 84%
    21:00 -3°C° 0 mm 9 m/s 736 mmHg 83%
    22:00 -4°C° 0 mm 8 m/s 736 mmHg 81%
    23:00 -3°C° 0 mm 7 m/s 737 mmHg 79%

    31 Ianuarie, Vineri

    Timp Temperatura Precipitaţii Vânt Presiune Umiditate
    00:00 -3°C° 0 mm 6 m/s 737 mmHg 79%
    01:00 -2°C° 0 mm 5 m/s 737 mmHg 79%
    02:00 -3°C° 0 mm 4 m/s 737 mmHg 79%
    03:00 -3°C° 0 mm 4 m/s 736 mmHg 78%
    04:00 -3°C° 0 mm 4 m/s 736 mmHg 77%
    05:00 -2°C° 0 mm 3 m/s 736 mmHg 76%
    06:00 -1°C° 0 mm 3 m/s 736 mmHg 75%
    07:00 -1°C° 0 mm 3 m/s 735 mmHg 74%
    08:00 -1°C° 0 mm 3 m/s 735 mmHg 73%
    09:00 -1°C° 0 mm 4 m/s 735 mmHg 69%
    10:00 0°C° 0 mm 4 m/s 734 mmHg 65%
    11:00 +1°C° 0 mm 5 m/s 734 mmHg 61%
    12:00 +3°C° 0 mm 4 m/s 733 mmHg 61%
    13:00 +3°C° 0 mm 4 m/s 733 mmHg 62%
    14:00 +3°C° 0 mm 4 m/s 732 mmHg 62%
    15:00 +1°C° 0.2 mm 4 m/s 732 mmHg 72%
    16:00 +1°C° 0.2 mm 4 m/s 731 mmHg 83%
    17:00 0°C° 0.2 mm 4 m/s 731 mmHg 93%
    18:00 0°C° 0.1 mm 5 m/s 731 mmHg 92%
    19:00 +1°C° 0.1 mm 5 m/s 731 mmHg 92%
    20:00 +1°C° 0.1 mm 6 m/s 731 mmHg 91%
    21:00 +1°C° 0.3 mm 6 m/s 731 mmHg 91%
    22:00 +2°C° 0.3 mm 6 m/s 731 mmHg 91%
    23:00 +2°C° 0.3 mm 6 m/s 731 mmHg 91%

    1 Februarie, Sâmbătă

    Timp Temperatura Precipitaţii Vânt Presiune Umiditate
    00:00 +2°C° 0.2 mm 7 m/s 731 mmHg 90%
    01:00 +2°C° 0.2 mm 7 m/s 732 mmHg 90%
    02:00 +3°C° 0.2 mm 7 m/s 732 mmHg 89%
    03:00 +2°C° 0 mm 6 m/s 732 mmHg 89%
    04:00 +2°C° 0 mm 6 m/s 733 mmHg 89%
    05:00 +2°C° 0 mm 5 m/s 733 mmHg 88%
    06:00 +2°C° 0 mm 5 m/s 733 mmHg 90%
    07:00 +3°C° 0 mm 4 m/s 734 mmHg 91%
    08:00 +1°C° 0 mm 4 m/s 734 mmHg 92%
    09:00 +3°C° 0 mm 4 m/s 734 mmHg 90%
    10:00 +4°C° 0 mm 4 m/s 735 mmHg 87%
    11:00 +5°C° 0 mm 4 m/s 735 mmHg 85%
    12:00 +5°C° 0 mm 4 m/s 735 mmHg 84%
    13:00 +6°C° 0 mm 4 m/s 734 mmHg 82%
    14:00 +7°C° 0 mm 3 m/s 734 mmHg 81%
    15:00 +7°C° 0 mm 3 m/s 734 mmHg 82%
    16:00 +7°C° 0 mm 3 m/s 734 mmHg 82%
    17:00 +7°C° 0 mm 2 m/s 734 mmHg 83%
    18:00 +6°C° 0 mm 2 m/s 734 mmHg 83%
    19:00 +5°C° 0 mm 3 m/s 734 mmHg 82%
    20:00 +5°C° 0 mm 3 m/s 734 mmHg 82%
    21:00 +5°C° 0.2 mm 3 m/s 734 mmHg 85%
    22:00 +5°C° 0.2 mm 3 m/s 734 mmHg 88%
    23:00 +5°C° 0.2 mm 3 m/s 734 mmHg 90%

    2 Februarie, Duminică

    Timp Temperatura Precipitaţii Vânt Presiune Umiditate
    00:00 +5°C° 0.2 mm 3 m/s 734 mmHg 91%
    01:00 +5°C° 0.2 mm 3 m/s 734 mmHg 92%
    02:00 +5°C° 0.2 mm 3 m/s 734 mmHg 93%
    03:00 +5°C° 0.5 mm 4 m/s 734 mmHg 93%
    04:00 +6°C° 0.5 mm 4 m/s 733 mmHg 93%
    05:00 +6°C° 0.5 mm 5 m/s 733 mmHg 92%
    06:00 +5°C° 0.3 mm 6 m/s 734 mmHg 88%
    07:00 +4°C° 0.3 mm 7 m/s 734 mmHg 84%
    08:00 +4°C° 0.3 mm 8 m/s 735 mmHg 80%
    09:00 +4°C° 0 mm 8 m/s 735 mmHg 76%
    10:00 +4°C° 0 mm 8 m/s 736 mmHg 73%
    11:00 +4°C° 0 mm 8 m/s 736 mmHg 69%
    12:00 +5°C° 0 mm 8 m/s 736 mmHg 65%
    13:00 +5°C° 0 mm 8 m/s 736 mmHg 61%
    14:00 +6°C° 0 mm 8 m/s 736 mmHg 58%
    15:00 +5°C° 0 mm 6 m/s 736 mmHg 62%
    16:00 +6°C° 0 mm 5 m/s 735 mmHg 65%
    17:00 +7°C° 0 mm 3 m/s 735 mmHg 69%
    18:00 +7°C° 0 mm 3 m/s 734 mmHg 72%
    19:00 +5°C° 0 mm 3 m/s 733 mmHg 75%
    20:00 +5°C° 0 mm 3 m/s 733 mmHg 78%
    21:00 +6°C° 0.4 mm 4 m/s 732 mmHg 81%
    22:00 +6°C° 0.4 mm 5 m/s 731 mmHg 84%
    23:00 +5°C° 0.4 mm 6 m/s 730 mmHg 87%
    Arată mai mult